Weather Roundup
Issued by NWS Springfield, MO

Home | Current Version | Previous Version | Text Only | Print | Product List | Glossary On
Versions: 1 2 3 4 5 6 7 8 9 10 11 12 13 14 15 16 17 18 19 20 21 22 23 24 25 26 27 28 29 30 31 32 33 34 35 36 37 38 39 40 41 42 43 44 45 46 47 48 49 50
000
NZUS99 KSGF 190207
HRRSGF

HOURLY WEATHER
NATIONAL WEATHER SERVICE SPRINGFIELD MO
900 PM CDT THU SEP 18 2014

......SGF CWA......

CITY           SKY/WX    TMP DP  RH WIND       PRES   REMARKS
SPRINGFIELD    CLEAR     65  61  87 E8        30.02R
JOPLIN         CLEAR     66  63  90 E5        30.00R
WEST PLAINS    PTCLDY    60  58  92 CALM      30.05R FOG
ROLLA          FOG       62  60  93 CALM      30.04R VSB 1/2
OSAGE BEACH    CLEAR     63  59  88 CALM      30.04R
BRANSON        CLOUDY    64  63  94 E6        30.05R

......SURROUNDING SGF CWA......

CITY           SKY/WX    TMP DP  RH WIND       PRES   REMARKS
CHANUTE        CLEAR     70  65  84 E9        29.98R
PARSONS        CLEAR     69  65  86 SE3       29.98R
COFFEYVILLE    CLEAR     69  65  86 E8        29.96R
EMPORIA        CLEAR     66  64  93 E12       29.98R
GROVE OK       CLEAR     70  68  94 CALM      29.98R
ROGERS AR      CLEAR     67  62  84 E13       30.01R
SILOAM SPRINGS CLEAR     70  61  73 E7        30.00R
HARRISON AR    CLOUDY    64  64 100 E8        30.04R FOG
NEAR YELLVILLE MOCLDY    64  61  88 CALM      30.04R

......KANSAS AND MISSOURI......

CITY           SKY/WX    TMP DP  RH WIND       PRES   REMARKS
KANSAS CTY INT CLEAR     64  61  90 SE8       30.01R
DOWNTOWN KC    CLEAR     65  61  87 E6        30.00R
COLUMBIA       CLEAR     62  58  86 E6        30.04R
SEDALIA        CLEAR     63  61  93 SE5       30.04R FOG
ST JOSEPH      CLEAR     62  60  93 SE3       30.01R
ST LOUIS       PTCLDY    65  54  67 SE5       30.06R
SPIRIT OF STL  CLEAR     58  56  93 CALM      30.05R
KIRKSVILLE     CLEAR     57  53  86 E3        30.06R
WICHITA        CLEAR     72  62  71 E13       29.95R
TOPEKA         CLEAR     64  62  93 E3        30.00R
OLATHE         CLEAR     63  62  97 E7        30.00R

......TENNESSEE......

CITY           SKY/WX    TMP DP  RH WIND       PRES   REMARKS
MEMPHIS        CLOUDY    74  65  73 E7        29.99R
NASHVILLE      PTCLDY    68  60  75 N6        30.03R

......ARKANSAS.......

CITY           SKY/WX    TMP DP  RH WIND       PRES   REMARKS
FAYETTEVILLE   MOCLDY    69  65  86 E6        29.99R
FT SMITH       CLEAR     75  68  78 SE6       29.94R
LITTLE ROCK    PTCLDY    72  66  81 NE8       29.97R

......OKLAHOMA.......

CITY           SKY/WX    TMP DP  RH WIND       PRES   REMARKS
TULSA          CLEAR     75  65  70 NE5       29.94R
PONCA CITY     CLEAR     72  64  76 E12       29.94R
MCALESTER      PTCLDY    75  68  78 E5        29.94R
OKLAHOMA CITY  PTCLDY    74  67  78 SE8       29.93R

......IOWA............

CITY           SKY/WX    TMP DP  RH WIND       PRES   REMARKS
DES MOINES     CLEAR     64  54  69 SE8       30.04R
QUAD CITIES    CLEAR     59  51  75 E8        30.08R

......ILLINOIS........

CITY           SKY/WX    TMP DP  RH WIND       PRES   REMARKS
QUINCY         CLEAR     63  53  70 SE3       30.06R
CHICAGO        PTCLDY    59  53  80 N6        30.15R




USA.gov is the U.S. government's official web portal to all federal, state and local government web resources and services.